Weather History for Waukesha, WI

Change the Weather History Date:

Tuesday, May 1, 2012

  Actual Average Record
Temperature  
Mean Temperature 48 °F -  
Max Temperature 57 °F 63 °F 89 °F (1952)
Min Temperature 39 °F 42 °F 26 °F (1978)
Degree Days  
Heating Degree Days 17    
Moisture  
Dew Point 46 °F    
Average Humidity 86    
Maximum Humidity 100    
Minimum Humidity 72    
Precipitation  
Precipitation 0.00 in - - ()
Sea Level Pressure  
Sea Level Pressure 29.95 in    
Wind  
Wind Speed 5 mph (SSE)    
Max Wind Speed 15 mph    
Max Gust Speed 23 mph    
Visibility 8 miles    
Events      
Averages and records for this station are not official NWS values.
T = Trace of Precipitation, MM = Missing Value Source: NWS Daily Summary

Daily Weather History Graph

Daily Weather History Graph

Search for Another Location

Airport:

Trip Planner

Search our weather history database for the weather conditions in past years. The results will help you decide how hot, cold, wet, or windy it might be!

Date:

Astronomy

May. 01, 2012 Rise Set
Actual Time 5:46 AM CDT 7:54 PM CDT
Civil Twilight 5:14 AM CDT 8:25 PM CDT
Nautical Twilight 4:36 AM CDT 9:04 PM CDT
Astronomical Twilight 3:54 AM CDT 9:46 PM CDT
Moon 2:50 PM CDT (5/1) 2:51 AM CDT (5/1)
Length of Visible Light 15h 10m
Length of Day
14h 08m
Waxing Gibbous, 74% of the Moon is Illuminated
May 1
Waxing Gibbous
May 5
Full
May 12
Last Quarter
May 20
New
May 28
First Quarter

Hourly Weather History & Observations

Time (CDT) Temp. Windchill Dew Point Humidity Pressure Visibility Wind Dir Wind Speed Gust Speed Precip Events Conditions
12:15 AM 50.0 °F - 44.6 °F 82% 29.96 in 10.0 mi WNW 4.6 mph - N/A   Overcast
12:35 AM 50.0 °F - 44.6 °F 82% 29.96 in 10.0 mi SW 3.5 mph - N/A   Overcast
12:55 AM 50.0 °F - 44.6 °F 82% 29.97 in 10.0 mi WSW 5.8 mph - N/A   Overcast
1:15 AM 48.2 °F - 44.6 °F 87% 29.97 in 10.0 mi West 5.8 mph - N/A   Overcast
1:35 AM 48.2 °F - 42.8 °F 82% 29.97 in 10.0 mi WSW 4.6 mph - N/A   Overcast
1:55 AM 48.2 °F - 42.8 °F 82% 29.97 in 10.0 mi West 8.1 mph - N/A   Overcast
2:15 AM 46.4 °F 45.2 °F 42.8 °F 87% 29.97 in 10.0 mi WSW 3.5 mph - N/A   Overcast
2:35 AM 46.4 °F 44.3 °F 42.8 °F 87% 29.97 in 10.0 mi WSW 4.6 mph - N/A   Overcast
2:55 AM 46.4 °F 44.3 °F 42.8 °F 87% 29.97 in 10.0 mi West 4.6 mph - N/A   Overcast
3:15 AM 46.4 °F - 42.8 °F 87% 29.98 in 10.0 mi Calm Calm - N/A   Overcast
3:35 AM 46.4 °F 45.2 °F 42.8 °F 87% 29.99 in 10.0 mi West 3.5 mph - N/A   Overcast
3:55 AM 46.4 °F 45.2 °F 42.8 °F 87% 29.99 in 10.0 mi SSW 3.5 mph - N/A   Overcast
4:15 AM 46.4 °F - 42.8 °F 87% 29.99 in 10.0 mi Calm Calm - N/A   Scattered Clouds
4:35 AM 44.6 °F - 42.8 °F 93% 30.00 in 10.0 mi Calm Calm - N/A   Clear
4:55 AM 42.8 °F - 41.0 °F 93% 30.00 in 10.0 mi Calm Calm - N/A   Clear
5:15 AM 41.0 °F - 39.2 °F 93% 30.00 in 4.0 mi Calm Calm - N/A   Clear
5:45 AM 39.2 °F - 39.2 °F 100% 30.01 in 7.0 mi Calm Calm - N/A   Clear
6:00 AM 39.2 °F - 39.2 °F 100% 30.01 in 4.0 mi Calm Calm - N/A   Mostly Cloudy
6:45 AM 42.8 °F - 42.8 °F 100% 30.00 in 7.0 mi Calm Calm - N/A   Overcast
7:05 AM 46.4 °F - 44.6 °F 93% 30.00 in 7.0 mi Calm Calm - N/A   Scattered Clouds
7:45 AM 48.2 °F - 44.6 °F 87% 29.98 in 7.0 mi ESE 8.1 mph - N/A   Clear
8:20 AM 51.8 °F - 46.4 °F 82% 30.02 in 7.0 mi ESE 9.2 mph - N/A   Overcast
8:45 AM 51.8 °F - 44.6 °F 76% 30.01 in 7.0 mi SSE 9.2 mph - N/A   Overcast
9:45 AM 51.8 °F - 46.4 °F 82% 30.01 in 7.0 mi SSE 9.2 mph - N/A   Overcast
10:45 AM 55.4 °F - 46.4 °F 72% 29.98 in 7.0 mi East 10.4 mph - N/A   Scattered Clouds
11:45 AM 55.4 °F - 48.2 °F 77% 29.98 in 10.0 mi SE 10.4 mph - N/A   Clear
12:45 PM 57.2 °F - 48.2 °F 72% 29.96 in 10.0 mi ESE 11.5 mph - N/A   Scattered Clouds
1:45 PM 57.2 °F - 48.2 °F 72% 29.95 in 10.0 mi ESE 15.0 mph - N/A   Scattered Clouds
2:45 PM 55.4 °F - 48.2 °F 77% 29.93 in 7.0 mi ESE 11.5 mph - N/A   Clear
4:45 PM 57.2 °F - 51.8 °F 82% 29.91 in 7.0 mi ESE 11.5 mph - N/A   Mostly Cloudy
6:45 PM 57.2 °F - 51.8 °F 82% 29.87 in 7.0 mi SE 11.5 mph 23.0 mph N/A   Clear
7:45 PM 55.4 °F - 51.8 °F 88% 29.85 in 5.0 mi ESE 13.8 mph - N/A   Haze
8:45 PM 53.6 °F - 50.0 °F 88% 29.86 in 5.0 mi ESE 9.2 mph - N/A   Clear
9:15 PM 51.8 °F - 48.2 °F 88% 29.86 in 7.0 mi ESE 8.1 mph - N/A   Clear
9:55 PM 51.8 °F - 48.2 °F 88% 29.86 in 7.0 mi SE 6.9 mph - N/A   Mostly Cloudy
10:15 PM 51.8 °F - 46.4 °F 82% 29.86 in 5.0 mi SE 6.9 mph - N/A   Scattered Clouds
10:35 PM 51.8 °F - 48.2 °F 88% 29.85 in 5.0 mi ESE 8.1 mph - N/A   Scattered Clouds
10:55 PM 53.6 °F - 50.0 °F 88% 29.85 in 7.0 mi ESE 6.9 mph - N/A   Overcast
11:15 PM 53.6 °F - 50.0 °F 88% 29.85 in 7.0 mi ESE 8.1 mph - N/A   Overcast
11:35 PM 53.6 °F - 51.8 °F 94% 29.85 in 5.0 mi SE 8.1 mph - N/A   Overcast
11:55 PM 53.6 °F - 51.8 °F 94% 29.86 in 5.0 mi SSE 9.2 mph - N/A   Overcast